"2009-01-09 00:00:30",524519,14.66,283.4,6.356,1.129,11.97,104.8714,11.74,12.74,23.64,0,110.3,13.29,12.54,245.4
"2009-01-09 00:01:00",524520,14.37,284.9,6.419,0.96,12.23,104.8714,11.74,12.77,23.67,0,110.3,13.3,12.54,246.9
"2009-01-09 00:01:30",524521,15.94,286.7,5.617,1.318,13.86,104.8714,11.74,12.87,23.87,0,110.3,13.31,12.54,248.7
"2009-01-09 00:02:00",524522,16.54,291.8,5.932,1.198,15.55,104.8714,11.74,12.99,24.06,0,110.3,13.31,12.54,253.8
"2009-01-09 00:02:30",524523,17.03,289.8,6.073,1.336,14.64,104.8644,11.73,12.88,24.08,0,110.3,13.31,12.52,251.8
"2009-01-09 00:03:00",524524,17.11,292.9,5.605,1.002,14.88,104.8551,11.7,12.9,24.16,0,110.3,13.31,12.49,254.9
"2009-01-09 00:03:30",524525,16.08,288.7,6.203,1.807,13.72,104.8421,11.67,12.82,24.13,0,110.3,13.31,12.46,250.7
"2009-01-09 00:04:00",524526,15.13,282.2,4.958,1.03,11.47,104.8379,11.66,12.63,23.97,0,110.3,13.31,12.45,244.2
"2009-01-09 00:04:30",524527,15.56,289.3,6.59,1.255,13.54,104.8397,11.66,12.8,24.19,0,110.3,13.31,12.45,251.3
"2009-01-09 00:05:00",524528,15.31,292.3,7.169,1.288,14.33,104.8383,11.66,12.88,24.28,0,110.2,13.31,12.45,254.3
"2009-01-09 00:05:30",524529,15.61,287.2,6.606,1.181,13.84,104.8339,11.65,12.78,24.06,0,110.2,13.31,12.44,249.2
"2009-01-09 00:06:00",524530,15.97,287.7,6.723,1.354,14.06,104.8268,11.63,12.84,24.05,0,110.2,13.31,12.42,249.7
"2009-01-09 00:06:30",524531,16.8,292.3,6.29,1.05,14.83,104.8181,11.61,12.75,23.89,0,110.2,13.31,12.40,254.3
"2009-01-09 00:07:00",524532,13.61,285.8,2.61,0.712,11.16,104.8161,11.6,12.69,23.8,0,110.2,13.35,12.39,247.8
"2009-01-09 00:07:30",524533,14.53,291.6,6.097,1.18,14.48,104.8174,11.6,12.74,23.87,0,110.2,13.31,12.40,253.6
"2009-01-09 00:08:00",524534,15.28,290.7,6.536,1.361,13.73,104.8171,11.6,12.82,23.96,0,110.2,13.31,12.40,252.7
"2009-01-09 00:08:30",524535,15.08,292,7.449,1.174,14.86,104.8203,11.61,12.79,23.95,0,110.2,13.31,12.41,254.0
"2009-01-09 00:09:00",524536,15.34,291,5.993,1.391,13.55,104.8227,11.62,12.67,23.9,0,110.2,13.31,12.41,253.0
"2009-01-09 00:09:30",524537,15.82,290.3,6.151,1.429,14.9,104.8239,11.62,12.83,24.03,0,110.1,13.31,12.41,252.3
"2009-01-09 00:10:00",524538,15.8,289.4,7.077,1.068,14.31,104.8277,11.63,12.68,23.93,0,110.2,13.31,12.42,251.4
"2009-01-09 00:10:30",524539,14.5,283.3,5.538,1.334,12.1,104.8313,11.64,12.67,24.01,0,110.2,13.31,12.43,245.3
"2009-01-09 00:11:00",524540,16.07,286.9,6.863,1.283,14.09,104.8345,11.65,12.75,24.18,0,110.2,13.32,12.44,248.9
"2009-01-09 00:11:30",524541,15.18,291.1,5.676,1.061,13.58,104.8322,11.64,12.75,24.29,0,110.2,13.32,12.44,253.1
"2009-01-09 00:12:00",524542,14.95,290.5,6.902,1.437,13.11,104.8237,11.62,12.72,24.29,0,110.2,13.32,12.41,252.5
"2009-01-09 00:12:30",524543,15.24,290.5,6.492,1.386,14.17,104.8101,11.59,12.74,24.31,0,110.2,13.31,12.38,252.5
"2009-01-09 00:13:00",524544,15.2,291.9,6.054,1.372,14.68,104.8045,11.57,12.75,24.36,0,110.2,13.31,12.36,253.9
"2009-01-09 00:13:30",524545,14.41,288,7.546,1.602,12.64,104.8054,11.57,12.53,24.16,0,110.2,13.31,12.37,250.0
"2009-01-09 00:14:00",524546,15.57,289.4,6.134,1.279,14.75,104.8048,11.57,12.7,24.42,0,110.2,13.31,12.37,251.4
"2009-01-09 00:14:30",524547,15.47,287.7,7.907,1.256,13.59,104.8017,11.57,12.66,24.42,0,110.2,13.31,12.36,249.7
"2009-01-09 00:15:00",524548,15.64,282.3,5.335,1.188,11.68,104.7837,11.52,12.56,24.44,0,110.2,13.31,12.31,244.3
"2009-01-09 00:15:30",524549,17.26,292.9,6.711,1.134,14.76,104.7719,11.49,12.64,24.54,0,110.2,13.31,12.28,254.9
"2009-01-09 00:16:00",524550,16.28,291.2,7.171,1.377,13.93,104.7716,11.49,12.69,24.67,0,110.2,13.31,12.28,253.2
"2009-01-09 00:16:30",524551,16.65,293.8,5.854,1.769,14.02,104.7716,11.49,12.62,24.69,0,110.2,13.31,12.28,255.8
"2009-01-09 00:17:00",524552,16.51,290.6,5.498,1.284,13.67,104.7693,11.48,12.69,24.81,0,110.2,13.31,12.27,252.6
"2009-01-09 00:17:30",524553,15.65,292.7,6.173,1.303,13.17,104.7484,11.43,12.52,24.69,0,110.2,13.31,12.22,254.7
"2009-01-09 00:18:00",524554,14.94,289.3,6.637,0.996,12.33,104.7377,11.4,12.54,24.66,0,110.2,13.32,12.19,251.3
"2009-01-09 00:18:30",524555,15.85,293,6.881,1.279,14.52,104.7377,11.4,12.57,24.56,0,110.2,13.32,12.19,255.0
"2009-01-09 00:19:00",524556,16.22,295,5.94,1.063,14.93,104.7377,11.4,12.58,24.6,0,110.2,13.32,12.19,257.0
"2009-01-09 00:19:30",524557,16.99,292.1,5.605,1.387,14.69,104.7377,11.4,12.68,24.83,0,110.2,13.32,12.19,254.1
"2009-01-09 00:20:00",524558,15.62,293.1,6.423,1.435,12.78,104.7377,11.4,12.42,24.46,0,110.2,13.32,12.19,255.1
"2009-01-09 00:20:30",524559,16.11,292.3,8.44,1.394,13.19,104.7374,11.4,12.49,24.54,0,110.2,13.32,12.19,254.3
"2009-01-09 00:21:00",524560,15.09,292,6.086,1.231,12.99,104.7346,11.39,12.5,24.55,0,110.2,13.32,12.19,254.0
"2009-01-09 00:21:30",524561,15.31,291.3,6.783,1.192,13.1,104.7293,11.38,12.55,24.69,0,110.2,13.32,12.17,253.3
"2009-01-09 00:22:00",524562,16.18,296.3,6.9,1.422,14.58,104.7236,11.37,12.56,24.73,0,110.2,13.32,12.16,258.3
"2009-01-09 00:22:30",524563,15.69,296,4.868,0.965,15.28,104.7118,11.33,12.58,24.92,0,110.2,13.32,12.13,258.0
"2009-01-09 00:23:00",524564,15.35,291,7.642,1.068,12.89,104.7039,11.31,12.4,24.79,0,110.2,13.32,12.11,253.0
"2009-01-09 00:23:30",524565,15.73,293,6.717,1.317,14.04,104.7045,11.32,12.51,24.99,0,110.2,13.32,12.11,255.0
"2009-01-09 00:24:00",524566,15.77,280.7,3.928,0.724,11.54,104.7036,11.31,12.41,24.92,0,110.2,13.36,12.11,242.7
"2009-01-09 00:24:30",524567,16.85,293.7,4.707,1.628,14.95,104.6997,11.3,12.42,24.79,0,110.2,13.32,12.10,255.7
"2009-01-09 00:25:00",524568,16.69,292.9,6.354,1.307,14.3,104.6929,11.29,12.48,24.79,0,110.2,13.32,12.08,254.9
"2009-01-09 00:25:30",524569,16.52,294.5,5.137,0.954,15.16,104.6888,11.28,12.5,24.97,0,110.2,13.32,12.07,256.5
"2009-01-09 00:26:00",524570,16.27,294.3,6.698,1.34,14.53,104.6816,11.26,12.49,24.92,0,110.2,13.32,12.05,256.3
"2009-01-09 00:26:30",524571,15.48,288.4,6.82,1.109,12.58,104.6768,11.25,12.44,24.97,0,110.2,13.32,12.04,250.4
"2009-01-09 00:27:00",524572,15.89,294.5,4.433,1.25,12.7,104.6777,11.25,12.28,24.81,0,110.2,13.33,12.04,256.5
"2009-01-09 00:27:30",524573,15.32,293.8,7.516,1.211,13.51,104.6813,11.26,12.49,25.06,0,110.2,13.33,12.05,255.8
"2009-01-09 00:28:00",524574,14.32,291.4,5.476,1.18,11.84,104.6804,11.25,12.33,24.93,0,110.2,13.33,12.05,253.4
"2009-01-09 00:28:30",524575,16.73,300.5,5.477,1.062,15.31,104.6822,11.26,12.51,25.12,0,110.2,13.33,12.05,262.5
"2009-01-09 00:29:00",524576,16.7,298.8,6.203,1.302,14.39,104.6872,11.27,12.47,24.99,0,110.2,13.33,12.06,260.8
"2009-01-09 00:29:30",524577,15.97,295.8,4.853,1.254,13.39,104.6884,11.27,12.38,24.72,0,110.2,13.33,12.07,257.8
"2009-01-09 00:30:00",524578,15.49,295,7.216,0.986,12.62,104.6925,11.29,12.45,24.94,0,110.1,13.32,12.08,257.0
"2009-01-09 00:30:30",524579,15.28,292.6,7.487,1.384,12.2,104.6909,11.28,12.19,24.92,0,110.3,13.33,12.07,254.6
"2009-01-09 00:31:00",524580,15.96,297.7,6.902,1.103,14.08,104.6803,11.25,12.35,25.11,0,110.2,13.32,12.05,259.7
"2009-01-09 00:31:30",524581,15.67,295.7,6.581,1.509,13.1,104.668,11.22,12.36,25.08,0,110.2,13.32,12.01,257.7
"2009-01-09 00:32:00",524582,17.29,300.9,4.69,0.719,15.47,104.6631,11.21,12.48,25.16,0,110.2,13.32,12.00,262.9
"2009-01-09 00:32:30",524583,16.91,299.4,7.636,1.161,14.55,104.666,11.22,12.32,24.87,0,110.2,13.33,12.01,261.4
"2009-01-09 00:33:00",524584,15.47,291.7,6.629,1.204,12.19,104.6678,11.22,12.29,24.79,0,110.2,13.33,12.01,253.7
"2009-01-09 00:33:30",524585,16.03,294.3,6.302,1.457,12.85,104.6704,11.23,12.21,24.75,0,110.2,13.32,12.02,256.3
"2009-01-09 00:34:00",524586,16.26,295.5,6.95,1.322,13.55,104.6704,11.23,12.35,25,0,110.2,13.33,12.02,257.5
"2009-01-09 00:34:30",524587,15.59,296.5,6.415,1.305,13.32,104.671,11.23,12.34,24.95,0,110.2,13.33,12.02,258.5
"2009-01-09 00:35:00",524588,16.86,296.5,6.147,1.305,14.52,104.6713,11.23,12.42,25.02,0,110.2,13.33,12.02,258.5
"2009-01-09 00:35:30",524589,16.16,293.8,6.092,1.31,13.08,104.6713,11.23,12.33,25.13,0,110.2,13.33,12.02,255.8
"2009-01-09 00:36:00",524590,16.83,294.6,6.49,1.293,13.66,104.6708,11.23,12.25,25.13,0,110.2,13.33,12.02,256.6
"2009-01-09 00:36:30",524591,15.89,301.2,6.274,1.092,14.7,104.6691,11.23,12.33,24.99,0,110.2,13.33,12.02,263.2
"2009-01-09 00:37:00",524592,16.11,297.2,8.61,1.307,13.08,104.6657,11.22,12.23,24.96,0,110.2,13.33,12.01,259.2
"2009-01-09 00:37:30",524593,16.58,300.4,6.272,1.176,14.35,104.6598,11.2,12.35,25.24,0,110.2,13.33,11.99,262.4
"2009-01-09 00:38:00",524594,15.79,299.4,7.046,1.466,13.57,104.6539,11.19,12.35,25.27,0,110.2,13.33,11.98,261.4
"2009-01-09 00:38:30",524595,15.84,298.5,6.771,1.437,14.15,104.6443,11.16,12.28,25.16,0,110.2,13.33,11.95,260.5
"2009-01-09 00:39:00",524596,14.51,297.8,5.714,1.371,12.53,104.6378,11.15,12.22,25.1,0,110.2,13.33,11.94,259.8
"2009-01-09 00:39:30",524597,15.96,299.2,6.42,1.304,14.02,104.6378,11.15,12.32,25.39,0,110.1,13.34,11.94,261.2
"2009-01-09 00:40:00",524598,15.43,299.8,6.264,1.228,13.75,104.6378,11.15,12.17,25.41,0,110.2,13.34,11.94,261.8
"2009-01-09 00:40:30",524599,16.11,300.9,3.721,0.331,15.28,104.6259,11.12,12.3,25.68,0,110.2,13.34,11.91,262.9
"2009-01-09 00:41:00",524600,15.57,293,6.662,1.206,13.38,104.6048,11.06,12.27,25.79,0,110.1,13.33,11.85,255.0
"2009-01-09 00:41:30",524601,15.23,292.3,7.526,1.327,12.92,104.6039,11.06,12.31,25.95,0,110.2,13.34,11.85,254.3
"2009-01-09 00:42:00",524602,14.17,290.3,5.158,1.04,11.36,104.6017,11.05,12.07,25.71,0,110.2,13.34,11.84,252.3
"2009-01-09 00:42:30",524603,14.94,297,6.186,1.334,13.96,104.5839,11.01,12.19,25.99,0,110.2,13.34,11.80,259.0
"2009-01-09 00:43:00",524604,14.96,299.4,5.38,1.5,13.81,104.5706,10.97,12.19,25.99,0,110.2,13.34,11.76,261.4
"2009-01-09 00:43:30",524605,15.68,297.4,4.862,1.188,14.65,104.5698,10.97,12.21,26.13,0,110.2,13.34,11.76,259.4
"2009-01-09 00:44:00",524606,14.82,302.8,7.468,1.372,14.03,104.5642,10.96,12.1,25.41,0,110.2,13.34,11.75,264.8
"2009-01-09 00:44:30",524607,14,300.5,7.145,1.079,12.45,104.5613,10.95,12.09,25.8,0,110.2,13.34,11.74,262.5
"2009-01-09 00:45:00",524608,14.04,300.4,5.715,1.356,12.54,104.5546,10.93,11.98,25.61,0,110.2,13.34,11.72,262.4
"2009-01-09 00:45:30",524609,13.94,298.9,4.011,1.253,13.4,104.5554,10.93,12.08,25.66,0,110.2,13.34,11.72,260.9
"2009-01-09 00:46:00",524610,14.21,300.4,8.51,1.219,14.1,104.5416,10.9,12.13,25.96,0,110.1,13.33,11.69,262.4
"2009-01-09 00:46:30",524611,13.5,297.5,7.891,1.396,14.18,104.5362,10.89,12.09,25.85,0,110.2,13.33,11.68,259.5
"2009-01-09 00:47:00",524612,14.57,296.1,7.756,1.287,13.72,104.5362,10.89,12.12,26,0,110.1,13.33,11.68,258.1
"2009-01-09 00:47:30",524613,14.46,296.3,5.797,1.333,12.52,104.5362,10.89,11.92,25.86,0,110.1,13.33,11.68,258.3
"2009-01-09 00:48:00",524614,13.19,294.2,5.982,1.294,11.53,104.5362,10.89,11.86,25.76,0,110.2,13.33,11.68,256.2
"2009-01-09 00:48:30",524615,13.91,297.7,7.446,1.122,12.51,104.5354,10.88,11.95,25.9,0,110.1,13.33,11.67,259.7
"2009-01-09 00:49:00",524616,15.52,304.5,5.083,1.149,14.76,104.5283,10.87,12.1,26.02,0,110.1,13.33,11.66,266.5
"2009-01-09 00:49:30",524617,15.02,302.3,5.538,1.126,14.47,104.5235,10.85,12.03,25.91,0,110.1,13.33,11.64,264.3
"2009-01-09 00:50:00",524618,14.6,300.5,5.96,1.237,13.8,104.5179,10.84,12.04,26.05,0,110.1,13.33,11.63,262.5
"2009-01-09 00:50:30",524619,13.05,293.7,5.001,1,10.86,104.5055,10.81,11.86,25.89,0,110.1,13.33,11.60,255.7
"2009-01-09 00:51:00",524620,14.31,297.1,6.722,1.428,12.7,104.5024,10.8,11.89,25.77,0,110.1,13.34,11.59,259.1
"2009-01-09 00:51:30",524621,13.51,294.6,6.294,1.439,12.51,104.5024,10.8,11.9,25.89,0,110.1,13.34,11.59,256.6
"2009-01-09 00:52:00",524622,14.95,298.3,6.086,1.34,13.8,104.5024,10.8,11.95,25.96,0,110.1,13.34,11.59,260.3
"2009-01-09 00:52:30",524623,15.14,298.7,6.262,1.252,14.45,104.503,10.8,12.01,26.07,0,110.1,13.34,11.59,260.7
"2009-01-09 00:53:00",524624,15.53,299.3,5.086,1.056,14.27,104.5024,10.8,12.03,26.37,0,110.1,13.34,11.59,261.3
"2009-01-09 00:53:30",524625,14.39,294.2,6.599,1.218,12.15,104.4918,10.77,11.94,26.31,0,110.1,13.34,11.56,256.2
"2009-01-09 00:54:00",524626,13.66,287.3,6.632,1.064,10.7,104.4768,10.73,11.8,26.25,0,110.1,13.34,11.52,249.3
"2009-01-09 00:54:30",524627,14.82,295.5,6.111,1.454,12.78,104.4732,10.72,11.88,26.41,0,110.1,13.34,11.51,257.5
"2009-01-09 00:55:00",524628,15.09,294.7,5.964,1.306,12.44,104.4713,10.72,11.88,26.48,0,110.1,13.34,11.51,256.7
"2009-01-09 00:55:30",524629,15.94,301.1,3.836,0.746,15.08,104.4589,10.69,11.99,26.63,0,110.1,13.34,11.48,263.1
"2009-01-09 00:56:00",524630,15.05,296.7,6.241,1.34,13.44,104.4448,10.65,11.84,26.51,0,110.1,13.34,11.44,258.7
"2009-01-09 00:56:30",524631,14.61,301.2,6.874,1.196,13.46,104.442,10.64,11.81,26.49,0,110.1,13.34,11.43,263.2
"2009-01-09 00:57:00",524632,13.1,292.6,6.065,0.917,11.5,104.442,10.64,11.75,25.86,0,110.1,13.34,11.43,254.6
"2009-01-09 00:57:30",524633,13.03,289.8,6.396,1.197,11.07,104.4435,10.65,11.71,26.27,0,110.1,13.34,11.44,251.8
"2009-01-09 00:58:00",524634,14.07,294.8,6.568,0.957,13.89,104.4441,10.65,11.78,26.74,0,110.1,13.34,11.44,256.8
"2009-01-09 00:58:30",524635,14.59,299.6,3.19,0.784,15.21,104.434,10.62,11.85,26.62,0,110.1,13.35,11.41,261.6
"2009-01-09 00:59:00",524636,14.66,294.4,7.375,1.129,14.49,104.4194,10.59,11.86,26.65,0,110.1,13.35,11.38,256.4
"2009-01-09 00:59:30",524637,14.07,293.2,6.484,1.242,13.17,104.4129,10.57,11.73,26.66,0,110.1,13.34,11.36,255.2
"2009-01-09 01:00:00",524638,13.03,289.1,5.508,0.957,11.15,104.4141,10.57,11.69,26.45,0,110.1,13.34,11.36,251.1
"2009-01-09 01:00:30",524639,13.88,290.8,5.702,1.04,11.32,104.4173,10.58,11.54,26.13,0,110.1,13.34,11.37,252.8
"2009-01-09 01:01:00",524640,14.65,296.2,6.997,1.354,13.95,104.4232,10.6,11.77,26.48,0,110.1,13.35,11.39,258.2
"2009-01-09 01:01:30",524641,14.51,296.6,5.061,1.078,14.57,104.4241,10.6,11.8,26.48,0,110.1,13.35,11.39,258.6
"2009-01-09 01:02:00",524642,13.79,293.5,5.902,1.268,14.13,104.4253,10.6,11.79,26.57,0,110.1,13.35,11.39,255.5
"2009-01-09 01:02:30",524643,14.44,294.5,6.627,1.219,14.05,104.4256,10.6,11.74,26.43,0,110.1,13.34,11.39,256.5
"2009-01-09 01:03:00",524644,13.16,297.6,7.156,1.647,12.6,104.4285,10.61,11.66,25.79,0,110.1,13.34,11.40,259.6
"2009-01-09 01:03:30",524645,12.73,288,1.006,0.191,9.79,104.4331,10.62,11.53,26.26,0,110.1,13.38,11.41,250.0
"2009-01-09 01:04:00",524646,13.82,293.7,6.816,1.192,12.36,104.4312,10.62,11.69,26.52,0,110.1,13.34,11.41,255.7
"2009-01-09 01:04:30",524647,14.89,298.6,6.335,1.232,13.77,104.4306,10.62,11.78,26.45,0,110.1,13.34,11.40,260.6
"2009-01-09 01:05:00",524648,14.57,297.1,6.708,1.047,13.81,104.4338,10.62,11.76,26.42,0,110.1,13.34,11.41,259.1
"2009-01-09 01:05:30",524649,14.11,299.8,6.451,1.121,14.08,104.4347,10.63,11.78,26.18,0,110.1,13.34,11.42,261.8
"2009-01-09 01:06:00",524650,13.51,296,5.886,1.46,12.05,104.4344,10.63,11.62,26.05,0,110.1,13.34,11.41,258.0
"2009-01-09 01:06:30",524651,11.69,292.7,1.548,0.391,10.22,104.4384,10.64,11.6,25.76,0,110.1,13.38,11.42,254.7
"2009-01-09 01:07:00",524652,14.08,298.4,6.571,1.221,12.62,104.4497,10.66,11.64,26.08,0,110.1,13.34,11.45,260.4
"2009-01-09 01:07:30",524653,14.72,301.9,6.593,1.122,13.81,104.4401,10.64,11.73,26.41,0,110.1,13.35,11.43,263.9
"2009-01-09 01:08:00",524654,14.06,296,6.053,1.52,12.39,104.4359,10.63,11.68,26.3,0,110.1,13.35,11.42,258.0
"2009-01-09 01:08:30",524655,16.31,302.6,4.321,0.582,15.13,104.4356,10.63,11.85,26.59,0,110.1,13.35,11.42,264.6
"2009-01-09 01:09:00",524656,15.15,298.9,5.729,1.153,13.55,104.4359,10.63,11.78,26.29,0,110.1,13.35,11.42,260.9
"2009-01-09 01:09:30",524657,14.95,293.3,6.458,1.369,12.1,104.4362,10.63,11.66,26.22,0,110.1,13.35,11.42,255.3
"2009-01-09 01:10:00",524658,15.04,295.3,6.173,1.44,12.17,104.4362,10.63,11.65,26.05,0,110.1,13.35,11.42,257.3
"2009-01-09 01:10:30",524659,15,291.2,5.389,0.988,11.46,104.4362,10.63,11.65,26.47,0,110.1,13.35,11.42,253.2
"2009-01-09 01:11:00",524660,15.63,295.4,6.854,1.2,12.75,104.4359,10.63,11.73,26.71,0,110.1,13.35,11.42,257.4
"2009-01-09 01:11:30",524661,16.37,300,5.138,1.158,14.71,104.4249,10.6,11.8,26.91,0,110.1,13.35,11.39,262.0
"2009-01-09 01:12:00",524662,15.73,300,5.587,1.039,14.48,104.4068,10.55,11.79,27.08,0,110.1,13.35,11.34,262.0
"2009-01-09 01:12:30",524663,16.45,300.2,3.918,0.787,14.64,104.3992,10.54,11.78,27.2,0,110.1,13.35,11.32,262.2
"2009-01-09 01:13:00",524664,16.53,302.7,2.79,0.956,14.23,104.3746,10.47,11.75,27.2,0,110.1,13.35,11.26,264.7
"2009-01-09 01:13:30",524665,16.21,301.6,4.123,0.621,13.85,104.3684,10.46,11.73,27.21,0,110.1,13.35,11.24,263.6
"2009-01-09 01:14:00",524666,14.29,294.8,5.312,1.497,10.74,104.3656,10.45,11.47,27.06,0,110.1,13.35,11.24,256.8
"2009-01-09 01:14:30",524667,13.88,289.7,1.569,0.405,9.29,104.3461,10.4,11.37,26.98,0,110.1,13.38,11.19,251.7
"2009-01-09 01:15:00",524668,14.64,289.9,3.64,0.841,9.99,104.3346,10.37,11.39,27.12,0,110.1,13.35,11.16,251.9
"2009-01-09 01:15:30",524669,15.7,300.1,5.865,0.935,14.37,104.3346,10.37,11.6,27.35,0,110.1,13.35,11.16,262.1
"2009-01-09 01:16:00",524670,16.12,301.4,3.765,0.814,15.31,104.3286,10.35,11.62,27.32,0,110.1,13.35,11.14,263.4
"2009-01-09 01:16:30",524671,15.35,300.8,4.989,0.986,14.65,104.308,10.3,11.59,27.48,0,110.1,13.35,11.09,262.8
"2009-01-09 01:17:00",524672,14.02,298.8,5.576,1.466,13.92,104.3007,10.28,11.58,27.59,0,110.1,13.35,11.07,260.8
"2009-01-09 01:17:30",524673,14.69,299.3,7.989,1.44,12.87,104.2993,10.28,11.43,27.44,0,110.1,13.35,11.07,261.3
"2009-01-09 01:18:00",524674,12.31,290.4,3.68,0.98,9.2,104.2764,10.22,11.2,27.42,0,110.1,13.39,11.01,252.4
"2009-01-09 01:18:30",524675,15.64,296.8,5.943,1.553,11.7,104.2668,10.2,11.23,27.37,0,110.1,13.35,10.98,258.8
"2009-01-09 01:19:00",524676,14.49,296.5,6.243,1.341,12.47,104.2668,10.2,11.36,27.64,0,110.1,13.35,10.98,258.5
"2009-01-09 01:19:30",524677,13.97,294.5,4.999,1.123,14.53,104.2629,10.19,11.47,27.92,0,110.1,13.35,10.97,256.5
"2009-01-09 01:20:00",524678,15.4,295.8,3.696,0.708,14.77,104.2372,10.12,11.43,27.87,0,110.1,13.35,10.91,257.8
"2009-01-09 01:20:30",524679,14.98,293.8,6.744,1.266,13.32,104.233,10.11,11.35,27.86,0,110.1,13.35,10.90,255.8
"2009-01-09 01:21:00",524680,14.45,291.4,6.423,1.184,11.47,104.233,10.11,11.23,27.59,0,110.1,13.35,10.90,253.4
"2009-01-09 01:21:30",524681,14.35,288.9,6.267,1.154,10.37,104.233,10.11,11.06,27.49,0,110.1,13.35,10.90,250.9
"2009-01-09 01:22:00",524682,15.25,291.1,6.236,1.509,12.42,104.233,10.11,11.22,27.63,0,110.1,13.35,10.90,253.1
"2009-01-09 01:22:30",524683,15.51,295.9,7.088,1.161,13.77,104.233,10.11,11.31,27.67,0,110.1,13.35,10.90,257.9
"2009-01-09 01:23:00",524684,16.13,294.6,5.524,1.011,13.92,104.2327,10.11,11.3,27.56,0,110.1,13.35,10.90,256.6
"2009-01-09 01:23:30",524685,16.15,295.7,5.577,1.153,14,104.233,10.11,11.28,27.43,0,110.1,13.35,10.90,257.7
"2009-01-09 01:24:00",524686,14.84,291.5,7.962,1.269,12.85,104.233,10.11,11.22,27.43,0,110.1,13.36,10.90,253.5
"2009-01-09 01:24:30",524687,12.67,282.3,1.841,0.427,9.76,104.233,10.11,11.09,27.49,0,110.1,13.36,10.90,244.3
"2009-01-09 01:25:00",524688,14.97,293.3,5.851,1.153,13.24,104.233,10.11,11.26,27.67,0,110.1,13.36,10.90,255.3
"2009-01-09 01:25:30",524689,14.75,292.6,5.909,1.22,12.99,104.2324,10.11,11.3,27.78,0,110.1,13.36,10.90,254.6
"2009-01-09 01:26:00",524690,14.6,287.4,6.425,1.184,12.52,104.2211,10.08,11.21,27.65,0,110.1,13.36,10.87,249.4
"2009-01-09 01:26:30",524691,15,293.6,6.215,1.278,13.32,104.2025,10.03,11.24,27.65,0,110.1,13.36,10.82,255.6
"2009-01-09 01:27:00",524692,14.4,292.3,6.384,1.229,12.73,104.1991,10.02,11.22,27.69,0,110.1,13.36,10.81,254.3
"2009-01-09 01:27:30",524693,14.22,288.6,6.743,1.186,11.74,104.1991,10.02,11.18,27.62,0,110.1,13.36,10.81,250.6
"2009-01-09 01:28:00",524694,15.69,293.8,4.931,1.19,13.55,104.1991,10.02,11.22,27.69,0,110.1,13.36,10.81,255.8
"2009-01-09 01:28:30",524695,15.07,291.2,6.213,1.31,13.36,104.1991,10.02,11.17,27.55,0,110.1,13.36,10.81,253.2
"2009-01-09 01:29:00",524696,14.43,287.1,7.452,1.615,12.55,104.1991,10.02,11.24,27.65,0,110.1,13.36,10.81,249.1
"2009-01-09 01:29:30",524697,14.73,288.4,5.954,1.178,13.28,104.1991,10.02,11.16,27.66,0,110.1,13.36,10.81,250.4
"2009-01-09 01:30:00",524698,13.8,288.4,7.687,1.339,12.4,104.1991,10.02,11.16,27.62,0,110.1,13.36,10.81,250.4
"2009-01-09 01:30:30",524699,13.75,286.4,6.918,1.249,12.08,104.1991,10.02,11.17,27.66,0,110.1,13.36,10.81,248.4
"2009-01-09 01:31:00",524700,14.52,289.2,6.656,1.324,13.27,104.1991,10.02,11.19,27.58,0,110.1,13.36,10.81,251.2
"2009-01-09 01:31:30",524701,14.21,288.6,5.684,1.583,12.5,104.1991,10.02,11.12,27.45,0,110.1,13.36,10.81,250.6
"2009-01-09 01:32:00",524702,13.68,286,7.392,1.312,12.05,104.1988,10.02,11.09,27.47,0,110.1,13.36,10.81,248.0
"2009-01-09 01:32:30",524703,14.67,290,6.197,1.269,13.67,104.1977,10.02,11.18,27.37,0,110.1,13.36,10.81,252.0
"2009-01-09 01:33:00",524704,14.94,289.9,5.972,1.223,14.01,104.1988,10.02,11.2,27.21,0,110.1,13.36,10.81,251.9
"2009-01-09 01:33:30",524705,14.62,287.6,6.676,1.446,13.02,104.2003,10.03,11.12,27.09,0,110.1,13.36,10.81,249.6
"2009-01-09 01:34:00",524706,14.55,285.6,6.271,1.348,12.57,104.2009,10.03,11.14,27.21,0,110.1,13.36,10.81,247.6
"2009-01-09 01:34:30",524707,13.57,280.4,5.272,1.148,10.56,104.2009,10.03,11.11,27.26,0,110.1,13.36,10.81,242.4
"2009-01-09 01:35:00",524708,14.91,287,7.577,1.259,12.46,104.1983,10.02,11.11,27.33,0,110.1,13.36,10.81,249.0
"2009-01-09 01:35:30",524709,14.29,288.1,8.24,1.213,12.77,104.1859,9.99,11.11,27.34,0,110.1,13.36,10.78,250.1
"2009-01-09 01:36:00",524710,14.59,288.6,6.387,1.335,13.51,104.1693,9.95,11.19,27.4,0,110.1,13.36,10.73,250.6
"2009-01-09 01:36:30",524711,13.55,285.5,6.319,1.305,12.79,104.1697,9.95,11.21,27.45,0,110.1,13.36,10.73,247.5
"2009-01-09 01:37:00",524712,13.39,280.9,6.626,1.299,12.1,104.172,9.95,11.12,27.27,0,110.1,13.36,10.74,242.9
"2009-01-09 01:37:30",524713,13.7,277.9,7.25,0.859,11.18,104.1735,9.96,10.91,27.09,0,110.1,13.36,10.74,239.9
"2009-01-09 01:38:00",524714,14.43,283,7.043,1.633,12.55,104.1709,9.95,11.14,27.28,0,110.1,13.36,10.74,245.0
"2009-01-09 01:38:30",524715,15.34,286.8,4.166,0.905,14.37,104.1693,9.95,11.07,27.19,0,110,13.36,10.73,248.8
"2009-01-09 01:39:00",524716,14.42,285.7,5.664,1.222,13.86,104.1622,9.93,11.15,27.34,0,110.1,13.36,10.72,247.7
"2009-01-09 01:39:30",524717,13.86,283,6.437,0.992,13.43,104.1558,9.91,11.08,27.27,0,110.1,13.36,10.70,245.0
"2009-01-09 01:40:00",524718,11.66,277.4,6.618,1.17,10.63,104.1561,9.91,10.87,27.08,0,110.1,13.36,10.70,239.4
"2009-01-09 01:40:30",524719,11.69,280,8.5,1.146,11.17,104.1446,9.88,11,27.31,0,110.1,13.36,10.67,242.0
"2009-01-09 01:41:00",524720,13.49,282.2,7.012,1.157,12.08,104.1431,9.88,10.99,27.31,0,110.1,13.36,10.67,244.2
"2009-01-09 01:41:30",524721,12.36,279.7,8.3,1.763,11.92,104.1446,9.88,11.02,27.32,0,110.1,13.37,10.67,241.7
"2009-01-09 01:42:00",524722,14.04,281.7,6.207,1.231,13.56,104.135,9.86,11.09,27.44,0,110.1,13.37,10.65,243.7
"2009-01-09 01:42:30",524723,13.55,277.8,6.984,1.145,13.09,104.1312,9.85,11.03,27.32,0,110.1,13.37,10.64,239.8
"2009-01-09 01:43:00",524724,12.65,278.6,5.505,1.665,12.42,104.1225,9.83,10.97,27.27,0,110.1,13.37,10.61,240.6
"2009-01-09 01:43:30",524725,11.94,273.8,4.423,1.191,10.5,104.1175,9.81,10.81,27.16,0,110.1,13.37,10.60,235.8
"2009-01-09 01:44:00",524726,13.2,280.9,8.04,1.478,12.67,104.1201,9.82,11,27.32,0,110.1,13.37,10.61,242.9
"2009-01-09 01:44:30",524727,14.29,282.7,6.974,1.328,13.56,104.1222,9.83,11,27.22,0,110.1,13.37,10.61,244.7
"2009-01-09 01:45:00",524728,13.46,284.2,5.804,1.372,13.22,104.1225,9.83,10.99,27.35,0,110.1,13.37,10.61,246.2
"2009-01-09 01:45:30",524729,14.28,281.8,9.36,1.215,12.31,104.124,9.83,10.95,27.29,0,110.1,13.37,10.62,243.8
"2009-01-09 01:46:00",524730,12.55,279,4.845,1.825,11.91,104.1249,9.83,10.88,27.15,0,110.1,13.37,10.62,241.0
"2009-01-09 01:46:30",524731,12.25,277.5,5.426,1.578,11.06,104.1227,9.83,10.88,27.24,0,110.1,13.37,10.61,239.5
"2009-01-09 01:47:00",524732,13.5,276.5,7.841,1.201,11.84,104.1117,9.8,10.99,27.43,0,110.1,13.37,10.59,238.5
"2009-01-09 01:47:30",524733,15.93,286.1,5.118,1.206,13.45,104.1046,9.78,10.9,27.4,0,110.1,13.37,10.57,248.1
"2009-01-09 01:48:00",524734,15.15,280.4,7.108,1.383,12.95,104.1072,9.79,10.94,27.25,0,110.1,13.37,10.57,242.4